Dewpoint
32 32 31 32 31 34 31 28 22 19 25 28 30 34 35 35 35 35 34 33 33 33 35 35 36 37 40 43 56 57 56 55 56 57 57 57 58 58 58 57 56 56 56 55
30 31 28 31 32 31 21 22 19 20 23 29 31 33 32 32 31 31 31 30 31 31 33 33 34 35 37 39 44 56 53 54 56 56 57 57 57 58 58 58 58 57 57 57
16 11 14 18 16 16 28 29 27 26 27 28 31 30 29 29 28 28 28 29 29 30 31 32 33 34 35 36 40 44 46 47 49 50 50 49 49 48 47 49 47 45 43 41
19 20 20 23 25 30 31 29 28 28 27 28 30 27 27 28 27 26 27 28 28 29 30 31 32 33 34 34 35 37 38 40 42 43 42 42 41 40 40 40 39 39 38 38
20 24 27 28 27 28 30 29 29 28 27 28 32 27 26 29 29 28 28 29 29 29 31 32 31 32 32 32 32 33 34 35 36 38 37 36 35 35 35 34 33 33 33 33
22 15 19 25 27 29 30 25 30 28 27 28 29 26 24 29 30 29 29 29 28 28 28 30 31 32 31 30 31 31 32 34 34 34 34 33 33 33 33 32 31 30 30 31
23 24 25 26 27 29 27 25 31 29 27 25 23 26 29 30 29 31 30 29 29 28 27 28 31 31 30 29 29 31 32 31 32 34 33 33 33 32 32 31 30 29 28 29
27 26 20 27 26 24 30 33 32 29 29 27 28 28 28 28 28 28 28 28 28 27 27 28 29 31 29 29 30 30 29 30 30 30 30 32 34 33 33 32 31 31 30 29
24 25 29 28 29 31 31 29 30 29 29 27 26 26 27 26 26 27 27 27 28 26 26 27 28 29 29 30 31 30 28 26 26 28 29 29 28 29 31 32 31 30 28 27
28 27 25 27 29 30 29 28 29 30 29 27 25 26 25 25 25 25 26 26 27 26 25 25 27 27 29 31 31 31 28 27 25 25 25 26 26 26 26 28 26 28 27 25
27 28 26 25 28 29 29 29 28 29 28 27 25 25 25 25 25 26 26 26 26 25 25 25 26 28 28 30 31 29 29 29 27 25 24 23 24 24 24 26 27 25 24 25
24 30 26 25 29 28 26 27 27 26 25 26 26 24 23 21 20 20 21 21 20 20 20 21 23 24 26 27 27 29 28 27 27 28 25 23 22 21 25 26 26 26 25 24
28 29 28 28 27 25 25 26 25 25 25 24 22 20 18 19 18 18 17 17 17 18 18 19 20 22 23 24 26 24 25 25 25 26 26 26 25 21 18 22 24 24 25 26
34 29 27 28 24 24 24 24 24 22 21 22 20 18 17 16 15 16 16 15 14 14 14 16 17 20 23 25 24 25 25 24 24 25 25 25 25 24 24 22 19 19 21 21
29 28 26 23 20 20 20 19 19 18 19 18 18 18 16 15 14 14 15 15 14 14 14 15 15 17 20 23 24 23 24 25 26 25 25 25 24 23 22 20 18 17 18 20
24 21 21 19 19 19 19 18 18 18 18 17 16 16 16 14 13 12 12 13 13 13 14 15 16 16 18 20 23 24 23 22 23 24 23 23 22 21 19 17 14 13 13 14
21 20 20 19 19 18 18 18 17 16 15 13 11 12 12 11 11 12 14 14 13 14 14 14 15 16 16 17 20 22 23 22 20 20 20 20 20 18 18 17 14 12 12 14
22 22 21 20 18 18 18 18 16 13 11 10 11 11 10 10 11 12 13 15 14 11 13 13 14 15 15 16 18 20 20 19 18 18 18 18 18 18 18 16 15 14 14 13
21 20 20 19 19 18 17 15 13 12 12 12 10 8 8 8 11 12 12 9 10 10 12 12 15 14 14 14 15 18 19 18 16 16 18 17 17 14 16 17 16 15 14 13
19 19 19 18 18 17 14 14 14 13 13 12 9 9 9 7 7 9 14 11 10 11 14 12 10 11 10 11 13 14 17 17 15 16 16 16 16 18 15 11 14 15 15 13
20 19 17 16 14 14 14 13 12 11 10 9 9 7 7 10 9 8 13 15 12 11 12 9 7 4 6 8 10 16 15 15 16 15 15 15 15 14 14 13 13 13 12 13
18 16 15 15 14 14 14 14 13 11 11 8 5 7 9 14 11 11 9 11 11 7 11 10 5 4 6 8 13 14 13 12 13 13 13 13 12 12 13 11 11 9 10 9
18 17 16 14 15 16 16 15 13 13 10 9 11 13 14 14 12 11 13 8 8 7 11 10 3 3 5 14 14 13 13 12 12 11 12 10 11 10 9 10 6 9 7 8
19 18 18 18 17 16 15 15 15 16 14 14 13 11 12 14 18 15 12 9 7 7 12 12 8 4 2 13 14 13 12 12 13 11 10 6 12 10 10 7 5 7 7 4
19 18 18 17 17 19 15 15 13 14 14 13 13 13 14 12 16 15 16 14 11 9 14 10 7 5 11 15 14 13 13 12 12 9 9 10 10 9 10 10 6 8 4 1
18 17 18 19 17 13 12 11 14 15 14 16 18 22 20 19 17 15 17 16 14 11 15 17 16 15 14 13 13 12 12 12 11 12 9 9 10 9 9 8 7 6 5 7
20 21 16 14 13 13 15 12 14 17 18 19 17 19 18 19 19 15 13 16 17 17 17 17 17 15 15 13 12 12 12 12 10 11 9 7 6 8 7 8 8 8 7 3
Lifted_Index
1 1 0 0 0 1 1 1 1 1 1 3 4 4 4 5 6 6 5 5 4 4 3 2 1 0 -1 -1 -1 -1 -1 -1 -1 -1 -1 -1 -1 -0 0 0 1 1 1 2
1 1 0 1 1 1 1 1 1 1 2 3 4 4 5 5 6 6 5 5 4 4 3 2 2 1 -0 -0 -0 -0 -0 -0 -0 -1 -1 -1 -0 -0 0 0 1 1 1 1
1 1 1 1 1 1 1 2 2 2 3 4 4 5 6 6 6 6 6 5 5 5 4 4 3 2 2 1 1 0 0 0 0 -0 -1 -0 0 0 1 1 1 1 1 1
1 1 1 1 1 1 1 2 2 3 4 4 4 5 7 7 7 7 7 7 7 7 7 7 6 5 4 3 2 1 1 1 0 0 0 1 1 1 1 1 1 1 1 1
1 1 1 1 2 2 2 2 3 3 4 5 5 5 7 9 9 9 9 9 10 10 10 10 9 8 7 5 4 2 1 1 1 1 1 1 2 2 2 2 2 2 2 2
1 1 1 2 3 3 2 3 3 4 5 5 5 6 8 10 11 11 11 12 12 12 12 12 12 11 9 8 7 6 4 3 2 2 2 2 2 2 2 2 2 2 2 2
1 1 1 3 3 3 3 3 4 5 5 6 6 7 9 11 12 12 12 12 13 12 12 12 13 13 11 10 11 11 10 7 5 5 5 5 5 5 4 3 3 3 3 3
1 1 2 4 4 4 5 5 5 6 6 6 7 9 11 11 11 12 12 12 12 12 12 13 14 13 13 13 14 15 14 11 10 10 10 10 10 9 8 7 5 5 5 5
2 3 4 5 6 6 7 6 6 6 7 7 8 9 10 10 11 11 11 12 12 12 12 13 13 13 14 15 16 15 14 13 13 12 13 13 13 13 12 10 9 9 8 7
3 4 5 6 7 8 8 7 7 7 7 8 8 8 9 10 10 11 11 12 12 12 12 12 13 14 14 15 16 15 14 14 14 14 14 14 14 14 14 13 13 12 12 11
4 5 5 6 7 8 8 7 7 8 8 8 8 8 9 9 10 11 11 12 12 12 12 13 14 14 15 15 15 14 14 14 15 15 15 15 15 15 16 16 16 16 16 15
5 5 6 6 7 8 8 7 7 8 8 9 9 9 9 9 10 11 12 13 13 13 13 14 15 15 16 16 16 15 14 15 15 15 16 16 16 16 17 18 19 19 19 19
6 6 6 7 8 8 8 8 8 9 9 9 10 10 10 11 11 12 13 13 14 14 14 15 15 16 17 17 17 16 15 16 16 16 16 16 16 16 17 18 19 19 20 21
7 7 7 8 8 8 9 9 9 9 10 11 11 12 12 12 12 13 13 14 15 15 15 15 16 16 17 18 18 17 16 16 17 17 17 17 17 17 17 17 18 19 20 21
8 8 8 8 8 9 10 10 9 9 10 11 12 12 13 13 13 14 15 15 16 16 16 16 17 18 19 19 19 18 18 18 18 18 18 18 18 18 18 18 18 18 20 20
8 9 8 8 9 9 10 10 9 10 11 12 12 13 14 14 14 15 16 16 16 16 17 17 18 19 21 21 20 20 20 20 20 19 19 19 19 19 19 19 19 20 20 21
8 8 8 8 9 9 10 10 11 11 12 13 13 14 14 15 15 16 16 17 17 18 18 19 20 21 22 22 21 21 21 21 21 21 21 21 21 21 21 21 21 21 22 23
9 9 9 10 10 10 11 11 12 13 13 14 15 15 15 15 16 16 17 18 18 19 20 21 21 22 23 23 22 22 22 22 22 22 22 22 22 22 22 22 22 22 23 24
11 11 11 11 12 12 12 13 14 14 15 15 16 16 16 17 17 17 18 18 18 19 20 22 22 23 23 23 23 23 23 23 23 23 23 23 23 23 23 23 23 24 24 24
11 11 12 12 13 13 14 14 15 15 16 16 17 17 17 18 18 19 19 19 19 20 21 22 22 23 23 23 23 23 23 23 23 23 23 24 24 24 24 24 25 25 25 25
11 12 12 13 13 14 15 15 16 16 17 18 18 18 18 19 19 20 20 20 20 22 22 22 22 22 22 22 22 22 22 22 22 22 23 23 23 24 24 24 25 25 25 25
12 12 13 13 14 14 16 16 17 17 18 18 19 19 19 19 20 20 20 20 22 22 22 22 22 22 21 21 21 21 21 21 21 21 21 21 22 22 22 23 23 24 24 24
13 13 13 14 14 15 16 17 18 18 19 19 19 19 19 20 20 20 20 21 22 22 22 22 21 21 21 21 21 21 20 20 20 20 20 20 21 21 21 21 22 22 23 23
13 13 14 15 15 16 17 18 18 19 19 19 19 20 20 20 20 20 20 21 21 21 21 21 21 21 20 20 20 20 20 20 20 20 20 20 20 20 20 20 21 21 21 22
13 14 15 16 16 17 17 18 18 19 19 19 19 19 19 19 20 20 20 20 20 20 19 19 19 19 19 19 19 19 19 19 19 19 19 19 19 20 20 20 20 20 21 21
14 15 15 16 17 17 18 19 19 19 19 19 19 19 19 19 19 19 19 19 19 18 18 17 17 17 17 17 18 18 18 18 18 18 18 19 19 19 19 20 20 20 20 21
15 15 16 17 17 18 18 19 19 19 19 19 19 19 19 19 18 18 18 18 18 17 17 16 16 16 17 17 17 17 17 17 17 18 18 18 19 19 19 20 20 20 21 21